Theta_e
328 329 329 330 331 331 331 332 331 331 332 331 330 330 329 329 329 330 330 331 331 331 329 328 329 330 330 329 329 329 330 333 334 332 332 331 329 331 333 332 332 331
326 328 328 329 330 330 331 332 331 331 331 330 330 329 329 329 329 329 329 330 330 329 329 328 328 330 330 329 330 329 330 333 334 333 333 332 330 331 332 331 331 331
326 327 328 328 329 330 331 331 331 330 330 330 329 329 329 330 330 330 329 329 329 328 328 329 329 330 330 330 329 330 330 332 334 333 334 333 332 330 329 329 330 331
325 326 327 328 329 330 330 330 330 329 329 329 329 329 329 329 330 330 329 329 329 329 329 329 330 330 330 330 330 330 330 331 332 332 332 332 331 330 328 328 329 330
325 326 327 328 329 330 330 329 329 329 329 329 329 329 329 329 330 330 329 329 329 329 329 329 330 330 330 330 330 331 331 331 331 331 331 330 329 329 328 328 329 329
325 327 328 328 329 329 329 329 328 329 329 328 329 329 329 329 329 329 330 329 329 329 330 330 330 330 329 330 331 331 331 331 330 330 329 329 329 329 328 328 329 329
325 326 327 327 328 328 328 328 328 328 328 328 328 328 329 329 329 329 329 329 329 329 329 330 330 330 329 329 330 330 329 329 329 329 328 328 328 328 328 329 330 330
323 323 324 325 325 325 326 326 327 327 326 327 328 328 328 329 329 329 329 330 330 329 328 329 329 330 330 330 330 330 328 328 328 327 327 328 328 328 328 329 330 331
321 321 322 322 322 323 323 324 325 325 325 326 327 328 328 328 328 329 329 329 330 329 329 328 329 329 330 330 330 329 328 328 327 328 328 328 328 329 329 330 331 330
319 319 320 320 319 320 321 321 322 323 323 324 326 326 326 327 327 328 328 328 329 329 328 328 328 329 329 330 330 329 328 328 329 329 329 328 327 329 329 330 330 329
318 318 318 318 317 317 318 318 319 321 321 322 323 324 325 326 326 326 326 326 326 326 326 327 328 329 329 330 329 328 328 328 328 328 328 327 327 328 328 327 328 329
317 317 317 317 316 315 315 316 317 319 320 320 320 321 323 324 324 324 323 323 323 324 324 325 327 328 328 329 328 328 328 328 328 328 328 327 327 327 327 327 327 327
316 316 316 315 315 314 314 314 315 316 318 319 319 319 319 320 320 320 321 321 321 322 322 323 325 327 327 326 326 326 327 326 326 326 327 327 327 327 328 328 327 327
315 315 314 314 313 313 312 312 313 314 315 316 317 317 316 315 316 317 318 319 320 320 321 321 323 324 325 324 324 325 325 325 325 325 327 328 328 328 328 327 327 327
315 314 314 313 312 312 311 311 312 312 312 313 314 314 313 313 313 315 316 318 319 320 321 321 322 322 323 323 324 325 324 324 325 325 326 328 328 327 327 327 326 327
314 314 313 312 311 310 310 310 310 310 310 310 311 312 312 312 312 313 314 315 317 319 320 321 322 323 323 323 323 324 324 324 324 324 325 326 326 326 326 326 325 326
313 313 312 312 311 310 309 309 309 309 308 308 309 309 310 310 311 311 311 312 315 317 318 320 321 322 323 323 323 323 323 323 323 323 324 324 325 325 325 324 324 325
313 312 311 311 310 309 308 308 307 307 307 307 307 307 307 308 308 308 309 310 313 316 317 317 318 320 322 323 323 323 323 323 323 323 324 324 324 324 324 323 323 323
312 311 310 310 309 309 308 307 307 306 306 305 305 305 305 305 305 306 308 309 312 313 314 316 317 318 320 321 322 322 322 323 323 323 323 323 323 322 322 321 321 321
311 310 309 309 308 308 308 307 306 306 305 305 304 304 304 304 304 305 306 308 309 310 311 313 314 316 317 319 320 320 320 321 321 321 321 321 321 321 320 321 320 320
309 308 308 308 308 307 307 307 306 305 304 304 303 303 302 302 302 303 304 305 306 307 309 310 312 313 315 317 317 316 316 317 318 318 319 318 318 318 319 319 319 320
306 306 306 306 306 306 306 306 305 305 303 303 302 302 301 301 302 302 302 303 304 306 307 308 310 312 313 314 315 314 312 312 312 313 314 314 314 314 316 316 316 317
304 304 304 304 305 305 305 305 304 304 303 302 301 301 301 300 300 301 301 301 302 303 304 305 307 310 312 313 313 313 312 310 309 308 308 309 309 310 311 313 314 315
303 302 302 302 303 303 303 303 303 302 301 300 300 300 300 300 300 300 300 301 301 302 302 303 304 306 309 310 311 312 311 310 309 308 307 307 307 307 307 309 311 313
303 303 303 302 302 302 302 302 302 301 301 300 300 299 299 299 299 300 300 300 300 301 302 302 302 303 305 307 308 310 310 309 309 308 306 305 306 305 305 306 307 308
302 302 302 302 302 302 302 302 302 301 301 301 301 301 300 299 298 299 299 299 299 300 301 301 302 302 303 304 305 306 307 307 307 305 304 303 304 304 304 304 304 305
Wind_Speed
15 16 16 17 17 18 17 18 19 18 18 19 20 21 21 21 21 21 22 23 23 22 21 18 17 18 19 20 22 23 25 27 24 22 25 27 27 29 29 27 26 27
16 16 17 18 18 17 18 18 19 18 18 20 21 22 22 22 22 22 22 22 23 23 20 16 14 15 16 17 19 20 22 25 23 21 24 25 25 29 30 27 26 25
16 16 17 18 18 18 18 18 18 18 18 20 22 22 22 22 22 23 23 21 21 21 18 15 14 15 17 18 18 18 20 22 22 22 25 26 26 29 30 27 27 25
16 16 17 18 18 19 18 17 18 19 19 20 22 22 22 22 22 23 24 21 19 19 17 16 16 16 16 15 14 14 17 20 21 22 23 24 24 26 27 26 26 27
16 16 17 18 18 18 18 19 20 20 20 21 22 22 22 22 22 22 23 21 18 17 16 16 15 16 15 12 10 11 14 17 18 18 19 22 23 20 22 22 21 23
18 19 19 19 19 19 19 20 20 20 21 22 22 22 21 20 20 21 21 19 17 15 12 12 11 11 11 8 6 7 10 12 11 11 11 14 19 16 16 19 18 19
21 21 21 21 21 21 21 22 21 21 22 22 22 22 21 20 20 20 19 17 15 13 10 8 7 6 5 2 2 3 5 7 6 5 5 5 13 12 14 17 18 17
22 22 22 22 22 23 23 23 23 23 23 22 22 22 20 20 19 19 18 15 13 12 9 6 5 5 4 3 3 5 4 6 5 4 3 5 10 11 11 12 15 16
22 23 23 23 24 23 23 23 23 23 24 24 23 22 21 20 19 19 18 15 14 14 12 10 9 8 8 7 7 7 5 4 3 3 5 6 8 10 11 11 12 13
22 23 24 25 24 23 22 22 21 22 23 25 24 22 22 22 21 21 21 19 16 15 14 14 13 12 11 10 9 8 5 4 3 3 5 6 7 8 9 11 10 9
23 24 25 25 24 23 22 21 21 21 21 23 25 23 22 23 23 22 22 21 20 18 17 17 15 14 13 12 11 9 6 6 6 4 4 2 2 4 4 6 8 8
23 24 24 24 23 23 22 22 22 21 21 22 25 25 24 23 22 22 22 22 21 20 20 19 17 15 15 14 13 10 8 9 9 8 7 6 3 3 3 3 5 7
23 23 24 23 23 23 23 23 23 23 23 24 25 26 26 25 25 24 23 23 23 22 21 19 17 17 16 16 16 13 11 12 12 9 8 7 4 2 2 2 4 3
23 23 24 22 22 23 23 24 24 24 25 25 25 25 25 25 26 27 26 24 24 24 23 21 20 20 19 19 19 16 13 13 13 10 7 4 3 3 4 3 4 4
22 23 23 22 23 24 24 24 24 25 27 27 27 26 26 26 27 29 29 29 26 26 26 25 25 24 22 21 21 19 17 15 14 14 12 9 8 8 9 6 2 2
22 22 22 23 24 24 25 25 25 26 27 28 28 28 28 29 30 31 32 32 32 30 29 28 27 26 23 22 21 20 18 18 17 17 16 14 13 13 12 10 7 4
22 22 22 23 24 24 25 26 26 27 27 27 28 29 29 30 31 31 31 32 34 33 32 30 28 25 23 22 21 19 18 19 19 18 17 16 16 16 15 13 11 10
22 22 23 23 24 25 26 26 27 28 28 28 28 29 30 31 32 33 32 32 33 34 33 31 29 27 25 23 22 21 20 20 20 19 18 18 17 18 18 16 13 10
22 22 23 24 24 25 25 27 29 30 29 29 28 28 30 32 33 34 34 34 34 35 34 32 30 27 26 25 24 24 24 25 24 23 22 21 21 22 21 19 16 13
22 23 24 25 25 25 26 27 28 28 28 28 28 29 31 32 33 34 35 35 35 36 36 34 31 27 24 24 25 26 26 27 27 27 27 27 26 25 23 22 20 19
23 24 25 26 26 27 28 28 28 28 27 27 28 30 30 31 33 34 35 35 36 37 37 37 34 29 25 24 25 26 28 29 30 30 30 30 29 28 27 25 24 23
24 25 25 25 25 26 27 27 27 27 27 27 29 30 31 32 34 35 36 36 36 37 39 39 36 32 28 26 25 27 28 30 31 31 30 30 30 29 28 26 26 26
26 27 27 27 27 28 27 26 26 25 26 27 30 31 32 32 33 34 36 37 38 38 39 40 38 34 30 27 26 27 29 31 32 32 32 32 31 31 30 28 27 26
26 28 29 29 30 30 29 28 27 27 26 28 30 32 31 31 32 34 36 37 39 39 38 40 40 37 33 30 28 27 29 30 31 32 33 33 32 32 33 32 31 27
26 27 27 27 28 27 27 27 27 27 27 29 31 32 32 32 33 35 36 36 37 38 38 39 40 39 37 34 31 29 29 29 30 32 33 33 32 33 34 35 34 32
28 27 26 25 25 24 24 24 24 24 25 27 29 30 32 32 33 34 35 34 34 36 37 38 38 38 38 36 35 33 31 30 31 32 32 32 32 33 34 35 34 34
Wind_Direction
11 9 9 9 8 5 4 360 355 352 350 349 348 343 338 334 329 323 314 306 303 300 294 288 287 289 284 277 273 268 261 258 257 248 234 225 222 221 218 213 211 211
8 8 7 6 4 5 5 360 356 355 352 350 349 345 341 339 336 332 324 314 305 301 297 291 288 289 283 271 266 266 261 257 257 246 235 233 227 221 218 214 209 210
11 9 7 3 2 4 4 1 359 357 353 352 351 347 343 340 337 335 332 323 312 307 303 296 288 283 279 272 265 261 256 253 253 245 236 232 226 219 218 217 214 212
11 9 7 4 6 8 7 6 4 0 358 357 353 348 344 341 341 339 337 332 325 318 311 301 297 291 283 277 272 264 256 253 250 247 239 226 217 213 210 212 215 214
13 14 12 10 13 13 11 11 9 7 5 1 356 352 348 347 348 344 341 338 331 324 315 306 303 299 290 283 274 257 254 258 253 253 251 230 218 215 207 206 211 212
21 22 20 18 20 19 17 15 13 12 9 4 1 359 356 357 357 351 348 344 336 329 322 313 309 305 299 292 280 258 260 269 259 267 273 223 200 206 210 205 207 212
29 29 29 29 30 29 27 23 20 17 13 10 8 7 5 6 4 0 359 356 346 340 330 322 334 346 344 338 338 324 301 291 266 272 299 170 167 190 208 207 208 211
33 34 35 36 35 33 30 26 25 22 19 17 15 14 15 13 10 10 12 9 2 359 357 357 13 24 24 27 31 29 353 309 284 259 257 166 165 186 195 205 215 216
31 32 34 34 32 30 28 24 22 21 21 21 19 20 25 24 20 22 25 25 21 19 21 27 33 36 30 26 28 34 23 327 296 256 238 208 196 196 192 204 219 224
32 32 32 31 28 26 24 21 20 23 24 23 22 26 32 32 30 30 33 37 36 29 25 28 37 43 39 35 31 29 21 349 323 272 247 226 219 222 213 212 217 228
35 34 32 31 27 23 22 21 21 25 27 25 25 28 32 36 35 33 36 40 39 36 35 35 38 42 45 45 40 36 32 15 6 344 314 297 247 255 257 240 232 235
37 36 34 32 30 26 26 28 28 31 34 34 34 33 35 41 44 40 39 41 40 38 39 42 44 45 48 51 48 47 50 44 39 25 5 4 349 291 294 257 238 240
40 39 37 35 32 31 32 34 36 39 41 44 46 44 40 43 46 46 44 43 44 42 40 44 51 54 53 51 48 45 46 48 44 29 11 13 7 324 289 256 260 262
45 42 40 38 35 35 37 38 40 43 45 48 52 51 46 42 44 47 48 46 46 47 45 45 50 53 52 48 46 47 53 54 49 41 39 51 62 51 44 6 313 283
47 44 41 39 37 38 40 42 43 46 48 50 51 53 52 49 48 48 49 48 48 50 50 49 50 50 50 49 51 58 65 64 58 58 64 76 84 79 78 83 74 249
49 46 42 41 40 40 41 44 48 50 49 49 50 53 54 54 53 51 48 47 48 51 53 55 57 56 57 57 58 61 65 63 59 58 62 67 70 68 69 71 65 54
50 47 44 44 44 43 44 47 50 52 51 49 50 52 52 53 53 51 47 45 47 50 51 54 57 60 61 61 59 58 58 59 57 57 62 67 66 61 56 53 52 53
52 49 48 49 48 49 49 49 52 53 52 51 50 49 50 50 50 49 48 46 48 49 49 50 53 58 62 62 61 60 59 61 62 61 62 67 70 69 67 64 60 53
53 51 50 52 52 52 51 50 51 52 51 51 51 50 49 49 48 48 49 49 50 49 48 48 50 54 61 66 67 67 65 65 66 65 67 70 74 75 75 73 67 58
54 53 54 55 55 54 53 51 50 49 49 50 50 50 50 48 47 48 50 50 50 49 48 48 48 51 58 65 70 72 73 73 73 73 73 72 70 69 70 70 67 63
56 56 57 57 57 56 55 53 51 49 49 50 51 51 50 49 47 48 49 50 50 50 49 48 47 50 57 64 69 72 75 77 79 79 78 75 71 67 65 63 62 62
58 59 59 58 57 57 54 52 51 50 49 51 53 54 53 52 50 49 48 48 49 50 50 48 46 48 53 60 66 69 70 71 73 75 76 75 72 69 67 63 59 59
62 63 63 61 61 60 58 57 55 53 52 52 54 55 54 53 52 51 50 49 49 50 49 48 47 48 50 55 62 66 67 67 66 67 67 67 66 66 66 67 64 61
65 65 65 65 64 64 64 64 63 61 59 58 58 57 56 55 55 54 53 51 51 51 51 50 49 50 52 53 57 62 65 66 66 65 64 63 62 61 61 63 65 65
67 66 65 65 64 64 64 64 65 65 63 61 60 58 57 57 56 56 55 53 53 52 53 53 52 52 53 54 55 59 62 65 66 66 64 62 61 59 58 59 60 62
66 65 65 65 64 63 63 62 62 62 61 60 59 58 56 55 56 57 56 54 54 54 54 55 54 54 54 54 55 57 60 63 66 65 64 63 61 58 56 55 55 57